| time (UTC) | temp F | wind direction | speed MPH | gust MPH | rain 1hr in | rain 24hr in | rain mn in | humidity % | barometer mb |
| 20260505113035 | 52 | 83 | 0.0 | 0.0 | 0.00 | 0.00 | 0.00 | 84 | 1023.7 |
| 20260505111548 | 52 | 83 | 0.0 | 0.0 | 0.00 | 0.00 | 0.00 | 84 | 1023.5 |
| 20260505101553 | 52 | 83 | 0.0 | 0.0 | 0.00 | 0.00 | 0.00 | 84 | 1023.5 |
| 20260505100053 | 52 | 83 | 0.0 | 0.0 | 0.00 | 0.00 | 0.00 | 84 | 1023.5 |
| 20260505094551 | 52 | 83 | 0.0 | 1.0 | 0.00 | 0.00 | 0.00 | 84 | 1023.5 |
| 20260505093049 | 52 | 83 | 0.0 | 1.0 | 0.00 | 0.00 | 0.00 | 84 | 1023.5 |
| 20260505091548 | 53 | 83 | 0.0 | 0.0 | 0.00 | 0.00 | 0.00 | 84 | 1023.5 |
| 20260505090051 | 53 | 83 | 0.0 | 0.0 | 0.00 | 0.00 | 0.00 | 84 | 1023.4 |
| 20260505084542 | 53 | 83 | 0.0 | 0.0 | 0.00 | 0.00 | 0.00 | 84 | 1023.3 |
| 20260505083049 | 53 | 83 | 0.0 | 0.0 | 0.00 | 0.00 | 0.00 | 84 | 1023.0 |
| 20260505081546 | 53 | 83 | 0.0 | 0.0 | 0.00 | 0.00 | 0.00 | 84 | 1022.9 |
| 20260505080038 | 53 | 83 | 0.0 | 0.0 | 0.00 | 0.00 | 0.00 | 84 | 1022.7 |
| 20260505074533 | 54 | 83 | 0.0 | 0.0 | 0.00 | 0.00 | 0.00 | 84 | 1022.5 |
| 20260505073030 | 54 | 314 | 0.0 | 0.0 | 0.00 | 0.00 | 0.00 | 83 | 1022.4 |
| 20260505071532 | 55 | 314 | 0.0 | 0.0 | 0.00 | 0.00 | 0.00 | 82 | 1022.2 |
| 20260505070021 | 56 | 314 | 0.0 | 0.0 | 0.00 | 0.00 | 0.00 | 81 | 1022.0 |
| 20260505064523 | 56 | 315 | 0.0 | 0.0 | 0.00 | 0.00 | 0.00 | 79 | 1021.8 |
| 20260505063018 | 56 | 315 | 0.0 | 0.0 | 0.00 | 0.00 | 0.00 | 78 | 1021.7 |
| 20260505061529 | 56 | 314 | 0.0 | 1.0 | 0.00 | 0.00 | 0.00 | 76 | 1021.7 |
| 20260505060048 | 57 | 317 | 0.0 | 1.0 | 0.00 | 0.00 | 0.00 | 74 | 1021.7 |
| 20260505054555 | 57 | 315 | 0.0 | 4.0 | 0.00 | 0.00 | 0.00 | 74 | 1021.4 |
| 20260505053013 | 57 | 280 | 1.0 | 6.0 | 0.00 | 0.00 | 0.00 | 74 | 1021.2 |
| 20260505051515 | 57 | 302 | 0.0 | 1.0 | 0.00 | 0.00 | 0.00 | 75 | 1021.1 |
| 20260505041504 | 56 | 349 | 0.0 | 4.0 | 0.00 | 0.00 | 0.00 | 78 | 1020.8 |
| 20260505040104 | 57 | 288 | 0.0 | 2.0 | 0.00 | 0.00 | 0.00 | 79 | 1020.6 |
| 20260505034536 | 56 | 287 | 1.0 | 5.0 | 0.00 | 0.00 | 0.00 | 78 | 1020.6 |
| 20260505033036 | 56 | 313 | 0.0 | 3.0 | 0.00 | 0.00 | 0.00 | 79 | 1020.5 |
| 20260505031528 | 56 | 326 | 0.0 | 2.0 | 0.00 | 0.00 | 0.00 | 79 | 1020.5 |
| 20260505030027 | 57 | 273 | 0.0 | 5.0 | 0.00 | 0.00 | 0.00 | 78 | 1020.6 |
| 20260505024538 | 57 | 67 | 0.0 | 1.0 | 0.00 | 0.00 | 0.00 | 79 | 1020.5 |
| 20260505023022 | 56 | 308 | 0.0 | 3.0 | 0.00 | 0.00 | 0.00 | 80 | 1020.5 |
| 20260505021519 | 56 | 332 | 0.0 | 5.0 | 0.00 | 0.00 | 0.00 | 80 | 1020.5 |
| 20260505020018 | 56 | 353 | 0.0 | 3.0 | 0.00 | 0.00 | 0.00 | 81 | 1020.7 |
| 20260505014518 | 56 | 301 | 0.0 | 4.0 | 0.00 | 0.00 | 0.00 | 81 | 1020.8 |
| 20260505013022 | 55 | 275 | 0.0 | 2.0 | 0.00 | 0.00 | 0.00 | 82 | 1020.8 |
| 20260505011513 | 55 | 31 | 0.0 | 2.0 | 0.00 | 0.00 | 0.00 | 83 | 1020.8 |
| 20260505010012 | 55 | 309 | 0.0 | 3.0 | 0.00 | 0.00 | 0.00 | 83 | 1020.7 |
| 20260505004513 | 55 | 315 | 0.0 | 6.0 | 0.00 | 0.00 | 0.00 | 83 | 1020.6 |
| 20260505003010 | 55 | 337 | 0.0 | 4.0 | 0.00 | 0.00 | 0.00 | 83 | 1020.4 |
| 20260505001547 | 55 | 328 | 0.0 | 4.0 | 0.00 | 0.00 | 0.00 | 84 | 1020.3 |
| 20260505000041 | 55 | 338 | 0.0 | 6.0 | 0.00 | 0.00 | 0.00 | 84 | 1020.2 |
| 20260504234532 | 54 | 2 | 3.0 | 6.0 | 0.00 | 0.00 | 0.00 | 85 | 1020.1 |
| 20260504233032 | 53 | 265 | 0.0 | 1.0 | 0.00 | 0.00 | 0.00 | 83 | 1020.1 |
| 20260504231539 | 53 | 269 | 0.0 | 5.0 | 0.00 | 0.00 | 0.00 | 84 | 1020.0 |
| 20260504230026 | 53 | 24 | 0.0 | 3.0 | 0.00 | 0.00 | 0.00 | 83 | 1019.9 |
| 20260504224522 | 52 | 315 | 0.0 | 4.0 | 0.00 | 0.00 | 0.00 | 84 | 1019.8 |
| 20260504223015 | 0 | 0.0 | 0.0 | 0.00 | 0.00 | 0.00 | 1019.6 | ||
| 20260504221513 | 0 | 0.0 | 0.0 | 0.00 | 0.00 | 0.00 | 1019.4 | ||
| 20260504220012 | 0 | 0.0 | 0.0 | 0.00 | 0.00 | 0.00 | 1019.1 | ||
| 20260504214559 | 0 | 0.0 | 0.0 | 0.00 | 0.00 | 0.00 | 1018.8 | ||
| 20260504213054 | 0 | 0.0 | 0.0 | 0.00 | 0.00 | 0.00 | 1018.6 | ||
| 20260504211552 | 0 | 0.0 | 0.0 | 0.00 | 0.00 | 0.00 | 1018.2 | ||
| 20260504204547 | 0 | 0.0 | 0.0 | 0.00 | 0.00 | 0.00 | 1017.7 | ||
| 20260504203037 | 0 | 0.0 | 0.0 | 0.00 | 0.00 | 0.00 | 1017.5 | ||
| 20260504201529 | 0 | 0.0 | 0.0 | 0.00 | 0.00 | 0.00 | 1017.2 | ||
| 20260504200025 | 0 | 0.0 | 0.0 | 0.00 | 0.00 | 0.00 | 1017.1 | ||
| 20260504194530 | 0 | 0.0 | 0.0 | 0.00 | 0.00 | 0.00 | 1017.0 | ||
| 20260504193016 | 0 | 0.0 | 0.0 | 0.00 | 0.00 | 0.00 | 1016.8 | ||
| 20260504191509 | 0 | 0.0 | 0.0 | 0.00 | 0.00 | 0.00 | 1016.7 | ||
| 20260504190004 | 0 | 0.0 | 0.0 | 0.00 | 0.00 | 0.00 | 1016.5 | ||
| 20260504184559 | 0 | 0.0 | 0.0 | 0.00 | 0.00 | 0.00 | 1016.4 | ||
| 20260504183051 | 0 | 0.0 | 0.0 | 0.00 | 0.00 | 0.00 | 1016.2 | ||
| 20260504181550 | 0 | 0.0 | 0.0 | 0.00 | 0.00 | 0.00 | 1016.0 | ||
| 20260504180114 | 0 | 0.0 | 0.0 | 0.00 | 0.00 | 0.00 | 1015.6 | ||
| 20260504174536 | 0 | 0.0 | 0.0 | 0.00 | 0.00 | 0.00 | 1015.8 | ||
| 20260504173036 | 0 | 0.0 | 0.0 | 0.00 | 0.00 | 0.00 | 1015.5 | ||
| 20260504171528 | 0 | 0.0 | 0.0 | 0.00 | 0.00 | 0.00 | 1015.3 | ||
| 20260504140124 | 56 | 280 | 2.0 | 8.0 | 0.00 | 0.00 | 0.00 | 80 | 1014.2 |
| 20260504120107 | 54 | 137 | 0.0 | 9.0 | 0.00 | 0.00 | 0.00 | 83 | 1013.7 |